LIPY

Ancona Airport

Airport
ICAO code
LIPY
IATA Code
AOI
Summary
ICAO Region
EUR
ICAO Territory
Location

Falconara, Marche

Serving
Ancona
Elevation
49 ft
Coordinates
43° 37' 0" N , 13° 21' 36" E
KCC
Metar
LIPY 251520Z AUTO 08004KT 040V120 9999 -RA OVC091/// 24/18 Q1011

International airport serving Ancona, Italy.

Climatology

Humid “subtropical” climate (Köppen climate classification Cfa) - characterized by hot, humid summers and cool winters. Significant amounts of precipitation occur in all seasons in most areas. Winter rainfall (and sometimes snowfall) is associated with large storms that the westerlies steer from west to east. Most summer rainfall occurs during thunderstorms.

Runways

Designator Length Width Surface Rops
4/22 2962 45 ASP Yes/Yes

Airport map

Aerial View

SKYbrary Partners:

Safety knowledge contributed by: